CHINASAT 9A (ZX 9A) (42763 NORAD) Tracking and Keplerian Element Data

This shows tracking and keplerian element data for the satellite.

Feedback or suggestion? Click here.




ElementValue
Catalog42763
NameCHINASAT 9A (ZX 9A)
Epoch Orbit778
Epoch Day145.64249848
Epoch Year2019
RAAN260.0763
Inclination0.0119
Eccentricity0.000314
Argument of Perigee180.6231
Mean Anonmoly135.0157
Mean Motion1.00270962
Decay Rate-3.17E-06
L11 42763U 17035A 19145.64249848 -.00000317 00000-0 00000-0 0 9995
L22 42763 0.0119 260.0763 0003140 180.6231 135.0157 1.00270962 7789

Live tracking and technical data element details for CHINASAT 9A (ZX 9A) (NORAD 42763). CHINASAT 9A (ZX 9A) can be tracked NOW for your location showing map with azimuth and elevation plus other details from your city location.

Track the satellite on the map from your city or location and see movement details for azimuth, elevation, latitude, longitude, range, height, and movement on the map or in text.







IsCatalogInMostPopularTable: catalog: 42763, numindb: 209
Update: records affected: 1



GetName: 42763 CHINASAT 9A (ZX 9A)

Hit Count: updated at: Mon, 27 May 2019 02:58:28 GMT